Terminal Aerodrome Forecast
Issued by NWS Topeka, KS

Home | Current Version | Previous Version | Graphics & Text | Print | Product List | Glossary On
Versions: 1 2 3 4 5 6 7 8 9 10 11 12
000
FTUS43 KTOP 180500
TAFTOP
TAF
KTOP 180520Z 1806/1906 25003KT P6SM SKC
     FM181500 22011KT P6SM SKC=

USA.gov is the U.S. government's official web portal to all federal, state and local government web resources and services.